Home > Time Zones > World Clock > Weather > Spain > Palma > Past weeks

Flag for Spain Weather past 2 weeks in Palma, Majorca, Spain

Now
64 °F

Clear.


Feels Like: 64 °F
Forecast: 74 / 86 °F
Wind: 1 mph from North

Location: Palma De Mallorca / Son San Juan

Current Time: Jul 31, 2014 at 5:11:18 AM

Latest Report: Jul 31, 2014 at 4:30 AM


Visibility: 10 mi

Pressure: 29.95 "Hg

Humidity: 78%

Dew point: 57 °F

Location of PalmaLocation

Historic Weather in Palma — Graph

°F

Palma temperature yesterday

Maximum temperature yesterday: 82 °F (at 1:00 PM)
Minimum temperature yesterday: 63 °F (at 5:00 AM)
Average temperature yesterday: 74 °F

Past Weeks' High & Low Weather Summary

 TemperatureHumidityPressure
High97 °F (Jul 18, 1:30 PM)89% (Jul 19, 11:30 PM)30.12 "Hg (Jul 19, 11:30 PM)
Low63 °F (Jul 23, 7:00 AM)20% (Jul 18, 1:30 PM)29.80 "Hg (Jul 20, 4:00 AM)
Average79 °F62%29.95 "Hg
* Reported Jul 16 4:00 AM — Jul 31 4:00 AM, Palma, Weather by CustomWeather, © 2014

Note: Actual official high and low records may vary slightly from our data, if they occured in-between our weather recording intervals... More about our weather records

Advertising

Palma weather history for previous 24 hours

 ConditionsComfort  
Time TempWeatherWind HumidityBarometerVisibility
4:00 AM
Jul 31
63 °FClear.No wind88%29.95 "Hg10 mi
3:30 AM64 °FClear.2 mph83%29.95 "Hg10 mi
3:00 AM64 °FClear.1 mph83%29.98 "Hg10 mi
2:30 AM66 °FClear.No wind83%29.98 "Hg10 mi
2:00 AM66 °FClear.1 mph88%29.98 "Hg10 mi
1:30 AM68 °FClear.No wind83%29.98 "Hg10 mi
1:00 AM68 °FClear.1 mph83%29.98 "Hg10 mi
12:30 AM70 °FClear.No wind83%29.98 "Hg10 mi
12:00 AM72 °FClear.No wind78%29.98 "Hg10 mi
11:30 PM
Jul 30
75 °FClear.1 mph74%29.98 "Hg10 mi
11:00 PM75 °FPassing clouds.6 mph74%29.95 "HgN/A
10:30 PM77 °FPassing clouds.7 mph69%29.95 "HgN/A
10:00 PM77 °FSunny.9 mph69%29.95 "Hg10 mi
9:30 PM77 °FPassing clouds.9 mph69%29.92 "HgN/A
9:00 PM77 °FPassing clouds.12 mph69%29.92 "HgN/A
8:30 PM79 °FPassing clouds.10 mph65%29.92 "HgN/A
7:30 PM79 °FPassing clouds.13 mph65%29.92 "HgN/A
7:00 PM81 °FPassing clouds.13 mph62%29.92 "HgN/A
6:30 PM81 °FPassing clouds.14 mph62%29.92 "HgN/A
6:00 PM81 °FPassing clouds.15 mph58%29.92 "HgN/A
5:30 PM82 °FPassing clouds.15 mph55%29.92 "HgN/A
5:00 PM81 °FPassing clouds.17 mph58%29.92 "HgN/A
4:30 PM82 °FPassing clouds.17 mph51%29.92 "HgN/A
4:00 PM81 °FPassing clouds.18 mph58%29.95 "HgN/A
3:30 PM82 °FPassing clouds.17 mph51%29.92 "HgN/A
3:00 PM81 °FPassing clouds.18 mph58%29.95 "HgN/A
2:30 PM81 °FPassing clouds.18 mph58%29.95 "HgN/A
2:00 PM81 °FPassing clouds.16 mph58%29.95 "HgN/A
1:30 PM82 °FPassing clouds.15 mph55%29.95 "HgN/A
1:00 PM82 °FPassing clouds.15 mph55%29.95 "HgN/A
12:30 PM81 °FPassing clouds.15 mph54%29.95 "HgN/A
12:00 PM81 °FScattered clouds.13 mph58%29.98 "HgN/A
11:30 AM81 °FScattered clouds.13 mph62%29.98 "HgN/A
11:00 AM79 °FScattered clouds.14 mph61%29.98 "HgN/A
10:30 AM79 °FScattered clouds.13 mph58%29.98 "HgN/A
10:00 AM79 °FScattered clouds.12 mph58%29.95 "HgN/A
9:30 AM77 °FScattered clouds.8 mph61%29.95 "HgN/A
9:00 AM73 °FScattered clouds.1 mph65%29.95 "HgN/A
8:30 AM70 °FScattered clouds.No wind69%29.95 "HgN/A
8:00 AM68 °FPartly sunny.No wind69%29.95 "HgN/A
7:30 AM64 °FPassing clouds.No wind78%29.95 "HgN/A
7:00 AM63 °FPassing clouds.2 mph77%29.95 "HgN/A
6:30 AM63 °FPassing clouds.1 mph77%29.95 "HgN/A
6:00 AM63 °FPassing clouds.No wind77%29.95 "HgN/A
5:30 AM63 °FPassing clouds.2 mph77%29.95 "HgN/A
5:00 AM63 °FPassing clouds.No wind77%29.95 "HgN/A
Weather by CustomWeather, © 2014

See weather overviewHow to use our weather pages